Probability
0 0 0 0 0 0 0 0 0 0 0 0 0 0 0 0 0 0 0 0 0 0 0 0 0 0 0 0 0 0 0 0 0 0 0 0 0 0 0 0 0 0 0
0 0 0 0 0 0 0 0 0 0 0 0 0 0 0 0 0 0 0 0 0 0 0 0 0 0 0 0 0 0 0 0 0 0 0 0 0 0 0 0 0 0 0
0 0 0 0 0 0 0 0 0 0 0 0 0 0 0 0 0 0 0 0 0 0 0 0 0 0 0 0 0 0 0 0 0 0 0 0 0 0 0 0 0 0 0
0 0 0 0 0 0 0 0 0 0 0 0 0 0 0 0 0 0 0 0 0 0 0 0 0 0 0 0 0 0 0 0 0 0 0 0 0 0 0 0 0 0 0
0 0 0 0 0 0 0 0 0 0 0 0 0 0 0 0 0 0 0 0 0 0 0 0 0 0 0 0 0 0 0 0 0 0 0 0 0 0 0 0 0 0 0
0 0 0 0 0 0 0 0 0 0 0 0 0 0 0 0 0 0 0 0 0 0 0 0 0 0 0 0 0 0 0 0 0 0 0 0 0 0 0 0 0 0 0
0 0 0 0 0 0 0 0 0 0 0 0 0 0 0 0 0 0 0 0 0 0 0 0 0 0 0 0 0 0 0 0 0 0 0 0 0 0 0 0 0 0 0
0 0 0 0 0 0 0 0 0 0 0 0 0 0 0 0 0 0 0 0 0 0 0 0 0 0 0 0 0 0 0 0 0 0 0 0 0 0 0 0 0 0 0
0 0 0 0 0 0 0 0 0 0 0 0 0 0 0 0 0 0 0 0 0 0 0 0 0 0 0 0 0 0 0 0 0 0 0 0 0 0 0 0 0 0 0
0 0 0 0 0 0 0 0 0 0 0 0 0 0 0 0 0 0 0 0 0 0 0 0 0 0 0 0 0 0 0 0 0 0 0 0 0 0 0 0 0 0 0
0 0 0 0 0 0 0 0 0 0 0 0 0 0 0 0 0 0 0 0 0 0 0 0 0 0 0 0 0 0 0 0 0 0 0 0 0 0 0 0 0 0 0
0 0 0 0 0 0 0 0 0 0 0 0 0 0 0 0 0 0 0 0 0 0 0 0 0 0 0 0 0 0 0 0 0 0 0 0 0 0 0 0 0 0 0
0 0 0 0 0 0 0 0 0 0 0 0 0 0 0 0 0 0 0 0 0 0 0 0 0 0 0 0 0 0 0 0 0 0 0 0 0 0 0 0 0 0 0
0 0 0 0 0 0 0 0 0 0 0 0 0 0 0 0 0 0 0 0 0 0 0 0 0 0 0 0 0 0 0 0 0 0 0 0 0 0 0 0 0 0 0
0 0 0 0 0 0 0 0 0 0 0 0 0 0 0 0 0 0 0 0 0 0 0 0 0 0 0 0 0 0 0 0 0 0 0 0 0 0 0 0 0 0 0
0 0 0 0 0 0 0 0 0 0 0 0 0 0 0 0 0 0 0 0 0 0 0 0 0 0 0 0 0 0 0 0 0 0 0 0 0 0 0 0 0 0 0
0 0 0 0 0 0 0 0 0 0 0 0 0 0 0 0 0 0 0 0 0 0 0 0 0 0 0 0 0 0 0 0 0 0 0 0 0 0 0 0 0 0 0
0 0 0 0 0 0 0 0 0 0 0 0 0 0 0 0 0 0 0 0 0 0 0 0 0 0 0 0 0 0 0 0 0 0 0 0 0 0 0 0 0 0 0
0 0 0 0 0 0 0 0 0 0 0 0 0 0 0 0 0 0 0 0 0 0 0 0 0 0 0 0 0 0 0 0 0 0 0 0 0 0 0 0 0 0 0
0 0 0 0 0 0 0 0 0 0 0 0 0 0 0 0 0 0 0 0 0 0 0 0 0 0 0 0 0 0 0 0 0 0 0 0 0 0 0 0 0 0 0
0 0 0 0 0 0 0 0 0 0 0 0 0 0 0 0 0 0 0 0 0 0 0 0 0 0 0 0 0 0 0 0 0 0 0 0 0 0 0 0 0 0 0
0 0 0 0 0 0 0 0 0 0 0 0 0 0 0 0 0 0 0 0 0 0 0 0 0 0 0 0 0 0 0 0 0 0 0 0 0 0 0 0 0 0 0
0 0 0 0 0 0 0 0 0 0 0 0 0 0 0 0 0 0 0 0 0 0 0 0 0 0 0 0 0 0 0 0 0 0 0 0 0 0 0 0 0 0 0
0 0 0 0 0 0 0 0 0 0 0 0 0 0 0 0 0 0 0 0 0 0 0 0 0 0 0 0 0 0 0 0 0 0 0 0 0 0 0 0 0 0 0
0 0 0 0 0 0 0 0 0 0 0 0 0 0 0 0 0 0 0 0 0 0 0 0 0 0 0 0 0 0 0 0 0 0 0 0 0 0 0 0 0 0 0
0 0 0 0 0 0 0 0 0 0 0 0 0 0 0 0 0 0 0 0 0 0 0 0 0 0 0 0 0 0 0 0 0 0 0 0 0 0 0 0 0 0 0
Wind_Speed
4 4 8 11 14 15 15 14 14 14 15 16 16 17 17 17 17 18 18 18 19 19 20 20 20 20 20 20 20 21 21 21 21 20 20 20 19 19 19 18 16 11 19
7 6 9 11 14 15 14 14 14 14 15 15 16 16 17 17 17 18 18 18 18 19 19 20 20 20 19 19 19 19 20 20 20 19 18 17 18 19 19 18 17 12 18
9 7 8 11 14 14 14 14 13 14 15 15 15 16 16 17 17 17 17 17 18 18 19 19 19 19 18 18 18 18 19 19 18 17 15 8 11 18 18 18 17 17 17
9 7 8 11 13 14 14 14 14 14 14 15 15 16 16 17 17 17 17 17 17 17 18 18 18 17 18 18 18 18 19 18 17 15 8 7 7 15 17 17 17 17 16
8 7 8 11 14 15 14 14 14 14 14 15 15 16 16 17 17 16 16 16 17 17 17 17 16 17 17 18 18 18 18 17 16 12 7 6 6 14 15 15 15 15 15
8 7 8 12 14 15 15 15 14 14 14 14 15 15 16 16 16 15 16 16 16 16 16 16 16 15 16 17 17 17 16 16 12 7 6 6 5 13 14 14 14 13 13
8 6 8 11 12 14 14 15 14 14 14 14 14 15 15 15 15 15 15 15 15 15 15 15 14 14 15 16 16 16 15 14 8 6 6 5 7 13 13 13 12 12 12
9 7 7 10 11 12 13 13 13 14 14 14 14 14 14 14 14 14 14 14 15 14 14 14 13 13 14 14 14 14 12 10 8 6 5 5 9 11 11 11 11 10 10
8 7 6 6 9 11 12 12 12 12 12 13 13 13 13 13 13 13 12 13 14 13 13 13 12 12 12 13 13 12 11 10 5 4 5 4 8 10 10 9 9 9 8
7 7 6 6 6 7 8 11 12 11 11 12 12 12 11 11 12 11 10 12 13 12 12 11 11 10 11 11 11 11 10 7 4 4 2 3 7 7 7 7 7 6 6
8 6 6 7 7 7 7 9 10 10 11 10 9 11 8 5 6 6 8 10 11 11 10 9 9 8 8 9 9 8 6 3 3 2 1 3 4 5 5 4 4 4 4
10 8 7 7 8 7 6 6 5 5 5 5 4 5 4 4 4 5 8 9 9 8 8 7 6 5 5 3 5 5 2 3 2 1 0 1 1 2 2 1 1 1 1
11 10 8 8 8 7 6 5 3 3 3 4 5 4 4 4 3 3 3 4 4 4 3 3 3 2 1 1 1 2 2 1 1 1 1 2 2 2 2 3 3 4 4
11 10 9 9 8 7 7 5 4 3 3 3 4 5 4 3 3 3 2 2 2 1 2 1 1 1 1 1 1 1 1 0 0 1 2 5 6 6 6 7 7 7 8
11 11 10 10 9 8 7 5 5 5 4 4 4 5 5 4 4 3 2 2 2 2 2 2 1 1 0 1 1 1 1 2 2 2 2 6 8 10 10 11 11 11 12
12 11 10 11 10 9 7 6 6 5 5 4 4 6 6 5 5 4 3 3 3 2 2 2 2 1 1 1 2 3 3 3 3 4 4 5 9 11 13 14 15 15 15
12 11 11 11 10 10 9 7 6 5 5 5 5 5 6 5 5 4 4 3 3 3 3 2 1 1 1 2 3 4 4 4 5 5 5 4 5 9 13 16 17 17 18
11 12 11 10 10 10 8 7 5 5 5 5 4 4 6 6 6 5 4 3 3 3 2 2 2 1 2 2 3 3 4 4 6 6 6 5 5 5 8 15 17 18 19
14 13 12 10 11 10 8 6 6 5 5 5 4 4 5 6 6 4 4 3 4 3 2 2 2 1 2 3 3 4 4 5 6 6 7 7 6 6 5 10 13 15 18
13 13 13 12 11 9 7 5 4 4 4 4 4 5 6 5 6 5 4 4 4 3 2 2 2 2 2 2 3 5 6 6 5 6 7 6 5 6 6 6 6 8 15
12 13 14 13 12 9 7 6 6 5 4 4 4 6 6 6 6 5 4 4 4 4 4 3 2 2 2 1 2 4 5 5 5 5 4 4 5 6 5 6 5 5 7
15 15 15 15 14 12 9 7 4 4 3 4 4 5 6 6 6 5 5 4 4 3 3 3 3 1 2 2 1 2 5 5 3 3 3 3 5 4 5 6 6 6 6
13 15 13 14 13 13 10 6 4 3 3 3 4 4 5 6 6 5 5 4 4 4 4 4 4 4 2 2 2 2 2 4 5 4 3 3 3 3 5 5 6 7 7
11 10 11 13 12 12 12 10 9 7 6 6 4 3 3 4 4 4 4 4 4 3 3 3 3 3 3 2 2 3 4 2 3 5 4 3 4 5 5 5 6 7 7
6 7 8 10 11 12 12 12 11 7 5 4 4 4 3 2 2 3 3 3 3 2 2 2 2 2 2 2 1 1 2 3 4 5 7 5 4 4 4 6 6 6 6
3 4 6 8 10 11 13 12 12 10 8 7 5 5 3 2 2 2 3 3 2 2 2 1 1 1 1 1 1 1 1 2 2 4 7 8 7 5 5 5 5 5 5
Wind_Direction
147 157 135 126 120 113 107 103 100 97 95 92 90 89 87 84 82 81 80 79 79 79 79 79 78 78 76 76 76 75 73 70 67 65 66 67 68 68 67 65 61 57 64
145 142 129 123 119 114 110 107 103 99 97 94 93 92 91 88 86 84 82 82 82 82 81 80 79 77 75 75 77 79 77 74 69 66 62 62 66 67 66 65 66 65 65
130 126 121 121 119 117 114 110 106 101 99 97 96 94 93 91 89 86 85 85 84 84 83 82 80 76 73 72 75 80 80 76 70 66 59 47 59 67 66 64 64 65 66
129 126 123 122 122 120 116 112 108 104 101 100 99 97 95 93 90 87 87 87 86 85 85 83 80 75 72 71 75 80 81 77 71 65 52 42 51 66 66 65 63 62 63
121 121 125 125 126 122 119 115 111 109 105 101 100 98 96 94 92 89 88 88 87 86 85 84 79 75 72 72 77 82 83 80 73 61 46 41 47 69 68 67 65 62 62
120 123 127 125 127 125 122 119 116 113 107 103 100 99 97 96 94 93 91 89 87 86 85 83 79 75 72 72 76 80 84 82 70 53 43 40 50 69 70 69 67 65 64
125 122 126 123 127 128 126 122 119 115 110 106 103 100 99 98 98 96 95 94 90 88 86 84 79 75 73 72 73 78 84 85 72 55 44 38 60 69 69 68 67 66 65
128 121 119 120 123 126 126 123 120 116 114 111 107 104 101 100 101 100 98 97 94 90 87 85 79 75 72 68 68 72 77 85 77 65 49 38 66 70 69 68 67 66 65
124 120 114 116 119 120 122 120 117 114 114 113 110 105 99 98 98 97 97 98 97 94 91 86 80 74 69 64 65 69 78 89 80 65 54 40 64 68 67 66 65 64 64
126 128 124 116 115 117 120 120 118 115 114 113 112 107 101 98 97 93 93 99 99 97 94 89 82 73 64 59 60 66 75 81 80 72 53 57 64 66 66 63 61 61 59
143 144 139 131 128 126 127 129 124 121 122 121 119 116 106 97 93 92 99 102 103 101 99 93 84 69 54 45 46 55 65 71 91 78 57 75 71 66 65 61 55 52 50
162 164 158 149 145 140 137 134 130 129 131 129 130 123 115 114 109 106 104 107 106 104 102 97 83 60 48 31 28 43 51 69 85 107 259 109 79 57 54 43 18 358 346
166 167 169 162 157 150 144 150 143 137 141 143 146 138 128 120 114 107 104 104 106 103 88 82 67 50 55 50 38 39 47 61 72 261 264 253 262 278 279 271 269 270 270
168 173 171 167 163 159 156 159 157 156 161 162 166 156 144 139 141 145 143 149 148 138 137 120 104 91 79 75 71 41 20 11 282 268 267 260 262 270 276 275 271 267 264
173 175 174 169 169 166 163 167 168 171 177 175 169 168 161 156 162 166 169 174 179 174 171 174 186 188 192 315 311 304 299 290 272 256 265 263 261 265 273 276 276 274 269
177 175 173 172 172 168 170 172 174 176 176 174 174 176 170 164 167 171 175 182 190 188 184 182 194 201 242 273 281 277 273 274 268 262 253 259 261 263 268 274 277 278 277
180 176 174 175 172 172 173 174 172 175 171 174 179 178 175 171 171 171 174 184 192 183 174 171 186 197 252 271 276 278 277 273 271 268 263 255 258 262 264 270 275 279 281
180 179 178 175 173 174 173 172 170 172 172 177 178 177 180 177 174 170 176 190 184 170 169 177 190 224 259 268 278 282 278 277 273 270 267 262 259 263 268 272 276 279 282
186 183 180 176 177 176 173 170 169 168 174 177 175 178 184 181 176 173 183 190 175 172 184 190 201 210 257 272 277 279 274 268 268 269 269 268 264 263 264 275 275 277 281
187 185 183 181 179 173 168 162 161 169 177 178 181 187 186 184 181 176 182 188 176 179 193 197 214 219 246 268 284 282 273 265 263 263 268 274 273 270 269 272 275 278 279
184 184 186 185 182 175 175 178 178 183 183 186 187 187 187 186 185 182 183 186 184 194 204 200 197 228 252 232 296 303 292 271 266 266 264 270 276 279 278 273 272 273 281
187 187 187 188 185 184 186 183 174 168 178 186 188 192 191 191 191 189 191 192 193 197 205 199 186 199 242 190 214 305 317 322 313 270 270 267 274 287 284 279 276 273 274
189 190 189 189 187 186 176 167 155 163 173 187 194 196 199 197 195 193 196 190 191 195 209 206 193 200 234 226 201 217 278 292 315 302 283 277 284 286 282 283 278 275 275
193 189 189 186 185 183 175 177 177 187 195 195 183 184 185 185 187 186 181 181 184 187 202 206 198 200 207 240 223 226 240 270 290 304 302 295 293 286 283 283 280 277 276
180 181 186 184 185 183 180 182 183 188 187 168 159 160 167 161 164 164 163 161 163 167 177 171 177 187 197 223 223 228 243 248 236 271 293 300 300 277 278 278 278 281 284
159 168 176 179 184 183 183 183 185 183 174 164 160 158 154 136 118 114 121 127 132 134 140 151 148 154 178 216 241 230 242 264 270 269 288 301 300 294 282 270 272 279 292